軌道要素
Epoch 2013 July 7.0 TT = JDT 2456480.5
T 2013 July 2.43552 TT MPC
q 1.8230142 (2000.0) P Q
n 0.05559630 Peri. 176.23992 +0.99686469 -0.05858630
a 6.7989023 Node 187.74536 +0.05830950 +0.99827578
e 0.7318664 Incl. 23.24221 +0.05348639 +0.00362063
P 17.7
From 28 observations 2013 July 14-Oct. 1, mean residual 0".4.
|